Content
SEND FEEDBACK

Daily
Averages
Monthly
Summary
United States of America

WHITE SULPHUR SPRINGS, WEST VIRGINIA


Home > North America > United States > West Virginia
Elevation: 1801 feet     Latitude: 37 47N     Longitude: 080 20W

WEATHER
 
SELECT A DAY
Number of Records: 365,555;   Date Range: 1/1/95 - 7/20/14
 
SHARE

PRINT THIS DATA

[ ← Previous Day ]
WEATHER ALMANAC - FEBRUARY 13, 2013
[ Next Day → ]
[ °C ]   °F
Weather ElementAverageHighLow
Temperature31.5 °F35.6 °F (10:15 am)28.4 °F (10:35 pm)
Dewpoint25.1 °F30.2 °F (12:35 pm)19.4 °F (4:35 am)
Humidity78.5 %100 % (1:15 pm)52 % (10:15 am)
Barometer29.74 in29.91 in (12:35 am)29.58 in (2:55 pm)
Wind Speed4.9 mph10.4 mph (8:55 am)
Wind Gust16.1 mph (6:15 pm)
Weather ElementAverage
Visibility7.8 mi
Wind DirectionESE (111.5 °)

Weather ElementTotal
Precipitation0.21 in
Heating Degree Days33 (Base 65)
Averaged from 71 records on February 13, 2013
WEATHER CONDITIONS BREAKOUT
WIND DIRECTION BREAKOUT
WEATHER BY HOUR - FEBRUARY 13, 2013
[ °C ]   °F
Local TimeTemperatureDewpointHumidityBarometerVisibilityWind DirectionWind SpeedGust SpeedPrecipitationEventsConditions
12:35 AM32.0 °F21.2 °F64 %29.91 in10.0 miCalmClear
12:55 AM32.0 °F21.2 °F64 %29.88 in10.0 miCalmClear
1:15 AM32.0 °F21.2 °F64 %29.89 in10.0 miCalmScattered Clouds
1:35 AM32.0 °F21.2 °F64 %29.88 in10.0 miCalmOvercast
1:55 AM32.0 °F21.2 °F64 %29.87 in10.0 miNNE (20°)3.5 mphOvercast
2:15 AM32.0 °F21.2 °F64 %29.86 in10.0 miNNE (30°)3.5 mphOvercast
2:35 AM32.0 °F21.2 °F64 %29.84 in10.0 miNE (40°)3.5 mphOvercast
2:55 AM32.0 °F21.2 °F64 %29.84 in10.0 miNE (50°)3.5 mphOvercast
3:15 AM32.0 °F21.2 °F64 %29.84 in10.0 miCalmOvercast
3:35 AM32.0 °F21.2 °F64 %29.83 in10.0 miCalmOvercast
3:55 AM32.0 °F21.2 °F64 %29.83 in10.0 miENE (60°)3.5 mphOvercast
4:15 AM32.0 °F21.2 °F64 %29.81 in10.0 miNNE (20°)4.6 mphOvercast
4:35 AM32.0 °F19.4 °F60 %29.82 in10.0 miNNE (20°)5.8 mphOvercast
4:55 AM32.0 °F21.2 °F64 %29.80 in10.0 miNE (40°)3.5 mphOvercast
5:15 AM32.0 °F21.2 °F64 %29.79 in10.0 miNNE (20°)8.1 mphOvercast
5:35 AM32.0 °F21.2 °F64 %29.78 in10.0 miNNE (30°)5.8 mphOvercast
5:55 AM32.0 °F21.2 °F64 %29.78 in10.0 miNE (40°)3.5 mphOvercast
6:15 AM32.0 °F21.2 °F64 %29.77 in10.0 miCalmOvercast
6:35 AM32.0 °F21.2 °F64 %29.78 in10.0 miCalmOvercast
6:55 AM32.0 °F21.2 °F64 %29.77 in10.0 miCalmOvercast
7:15 AM32.0 °F21.2 °F64 %29.76 in10.0 miCalmOvercast
7:35 AM32.0 °F21.2 °F64 %29.76 in10.0 miNNE (30°)4.6 mphOvercast
7:55 AM32.0 °F21.2 °F64 %29.75 in10.0 miNorth (10°)8.1 mphOvercast
8:15 AM32.0 °F21.2 °F64 %29.73 in10.0 miNNE (30°)4.6 mphOvercast
8:35 AM32.0 °F21.2 °F64 %29.73 in10.0 miNNE (30°)5.8 mphOvercast
8:55 AM32.0 °F21.2 °F64 %29.72 in10.0 miNorth (10°)10.4 mphOvercast
9:15 AM32.0 °F21.2 °F64 %29.72 in10.0 miNNE (20°)9.2 mphOvercast
9:35 AM33.8 °F21.2 °F60 %29.72 in10.0 miNNE (20°)6.9 mphOvercast
9:55 AM33.8 °F19.4 °F56 %29.71 in10.0 miNNE (30°)3.5 mphOvercast
10:15 AM35.6 °F19.4 °F52 %29.70 in10.0 miCalmOvercast
10:35 AM35.6 °F21.2 °F56 %29.71 in10.0 miEast (80°)4.6 mphOvercast
10:55 AM35.6 °F23.0 °F60 %29.71 in10.0 miESE (120°)5.8 mphRainLight Rain
11:15 AM33.8 °F26.6 °F75 %29.70 in10.0 miCalmRainLight Rain
11:35 AM35.6 °F26.6 °F70 %29.68 in10.0 miESE (110°)3.5 mphSnowLight Snow
11:55 AM33.8 °F28.4 °F81 %29.68 in5.0 miEast (100°)3.5 mphRainLight Rain
12:15 PM32.0 °F28.4 °F87 %29.67 in2.5 miEast (90°)3.5 mph0.01 inRainLight Rain
12:35 PM32.0 °F30.2 °F93 %29.65 in2.0 miENE (70°)4.6 mph0.02 inRainHeavy Rain
12:55 PM32.0 °F30.2 °F93 %29.64 in2.5 miNE (40°)3.5 mph0.04 inOvercast
1:15 PM30.2 °F30.2 °F100 %29.63 in2.5 miNE (40°)3.5 mph0.01 inSnowLight Snow
1:35 PM30.2 °F30.2 °F100 %29.61 in3.0 miNNE (30°)8.1 mph0.01 inOvercast
1:55 PM30.2 °F30.2 °F100 %29.61 in2.0 miNNE (30°)6.9 mph0.02 inSnowLight Snow
2:15 PM30.2 °F30.2 °F100 %29.60 in3.0 miNNE (30°)6.9 mphOvercast
2:35 PM30.2 °F30.2 °F100 %29.59 in3.0 miNNE (30°)5.8 mphOvercast
2:55 PM30.2 °F30.2 °F100 %29.58 in4.0 miNNE (30°)5.8 mphOvercast
3:15 PM30.2 °F30.2 °F100 %29.58 in2.0 miNNE (20°)5.8 mphOvercast
3:35 PM30.2 °F30.2 °F100 %29.59 in1.0 miNNE (30°)3.5 mph0.01 inSnowLight Snow
3:55 PM30.2 °F30.2 °F100 %29.58 in2.0 miNNE (20°)5.8 mph0.01 inOvercast
4:15 PM30.2 °F30.2 °F100 %29.58 in3.0 miNNE (20°)6.9 mph0.01 inOvercast
4:35 PM30.2 °F30.2 °F100 %29.59 in3.0 miNorth (350°)4.6 mph0.01 inOvercast
4:55 PM30.2 °F30.2 °F100 %29.61 in2.0 miNNW (330°)4.6 mph0.04 inSnowLight Snow
5:15 PM30.2 °F30.2 °F100 %29.63 in2.0 miCalmOvercast
5:35 PM30.2 °F30.2 °F100 %29.65 in5.0 miNW (310°)5.8 mph0.01 inSnowLight Snow
5:55 PM32.0 °F30.2 °F93 %29.67 in5.0 miWest (280°)9.2 mph0.01 inSnowLight Snow
6:15 PM32.0 °F28.4 °F87 %29.68 in7.0 miWest (280°)6.9 mph16.1 mphSnowLight Snow
6:35 PM32.0 °F28.4 °F87 %29.69 in10.0 miWest (270°)8.1 mphOvercast
6:55 PM32.0 °F26.6 °F80 %29.71 in10.0 miNW (320°)5.8 mphOvercast
7:15 PM32.0 °F26.6 °F80 %29.73 in10.0 miWNW (300°)6.9 mphOvercast
7:35 PM30.2 °F26.6 °F86 %29.75 in10.0 miWNW (290°)5.8 mphOvercast
7:55 PM30.2 °F26.6 °F86 %29.75 in10.0 miWNW (290°)8.1 mphSnowLight Snow
8:15 PM30.2 °F26.6 °F86 %29.76 in10.0 miWest (280°)6.9 mphOvercast
8:35 PM30.2 °F26.6 °F86 %29.77 in10.0 miWest (280°)8.1 mphOvercast
8:55 PM30.2 °F26.6 °F86 %29.78 in10.0 miWNW (290°)9.2 mphOvercast
9:15 PM30.2 °F26.6 °F86 %29.79 in10.0 miWNW (300°)8.1 mphOvercast
9:35 PM30.2 °F26.6 °F86 %29.79 in10.0 miWest (280°)8.1 mphOvercast
9:55 PM30.2 °F26.6 °F86 %29.79 in10.0 miWNW (290°)10.4 mph16.1 mphOvercast
10:15 PM30.2 °F26.6 °F86 %29.79 in10.0 miWNW (290°)6.9 mphOvercast
10:35 PM28.4 °F26.6 °F93 %29.81 in5.0 miWNW (290°)6.9 mphOvercast
10:55 PM28.4 °F26.6 °F93 %29.82 in4.0 miWest (280°)8.1 mphOvercast
11:15 PM28.4 °F26.6 °F93 %29.82 in5.0 miWNW (300°)4.6 mphOvercast
11:35 PM28.4 °F26.6 °F93 %29.83 in10.0 miWest (280°)5.8 mphOvercast
11:55 PM28.4 °F26.6 °F93 %29.84 in10.0 miWNW (300°)10.4 mphOvercast
Hourly data recorded from KLWB, located miles away from White Sulphur Springs, West Virginia







STORIES FROM OUR PARTNERS